Time,TemperatureF,DewpointF,PressureIn,WindDirection,WindDirectionDegrees,WindSpeedMPH,WindSpeedGustMPH,Humidity,HourlyPrecipIn,Conditions,Clouds,dailyrainin,SoftwareType,DateUTC
2013-08-14 00:01:00,81.3,75.3,30.01,SSE,160,1.0,3.0,82,0.00,,---,0.00,VWS V14.01,2013-08-14 04:01:00,
2013-08-14 00:03:00,81.2,75.6,30.01,SSW,194,1.0,3.0,83,0.00,,---,0.00,VWS V14.01,2013-08-14 04:03:00,
2013-08-14 00:04:00,81.2,75.6,30.01,WSW,242,0.0,3.0,83,0.00,,---,0.00,VWS V14.01,2013-08-14 04:04:00,
2013-08-14 00:09:00,81.2,75.6,30.01,WNW,300,0.0,5.0,83,0.00,,---,0.00,VWS V14.01,2013-08-14 04:09:00,
2013-08-14 00:14:00,81.2,75.6,30.02,WSW,250,0.0,5.0,83,0.00,,---,0.00,VWS V14.01,2013-08-14 04:14:00,
2013-08-14 00:19:00,81.1,75.4,30.02,South,176,1.0,5.0,83,0.00,,---,0.00,VWS V14.01,2013-08-14 04:19:00,
2013-08-14 00:24:00,80.9,76.0,30.02,WNW,291,0.0,5.0,85,0.00,,---,0.00,VWS V14.01,2013-08-14 04:24:00,
2013-08-14 00:29:00,80.7,75.8,30.02,WNW,285,1.0,5.0,85,0.00,,---,0.00,VWS V14.01,2013-08-14 04:29:00,
2013-08-14 00:34:00,80.4,75.8,30.01,SE,139,1.0,2.0,86,0.00,,---,0.00,VWS V14.01,2013-08-14 04:34:00,
2013-08-14 00:39:00,80.2,75.6,30.01,South,170,0.0,2.0,86,0.00,,---,0.00,VWS V14.01,2013-08-14 04:39:00,
2013-08-14 00:45:00,80.0,75.8,30.01,SE,140,0.0,2.0,87,0.00,,---,0.00,VWS V14.01,2013-08-14 04:45:00,
2013-08-14 00:50:00,79.8,75.9,30.01,SW,221,0.0,2.0,88,0.00,,---,0.00,VWS V14.01,2013-08-14 04:50:00,
2013-08-14 00:55:00,79.7,75.8,30.01,South,174,0.0,2.0,88,0.00,,---,0.00,VWS V14.01,2013-08-14 04:55:00,
2013-08-14 01:00:00,79.6,75.7,30.01,South,176,0.0,0.0,88,0.00,,---,0.00,VWS V14.01,2013-08-14 05:00:00,
2013-08-14 01:05:00,79.5,75.6,30.01,South,181,0.0,0.0,88,0.00,,---,0.00,VWS V14.01,2013-08-14 05:05:00,
2013-08-14 01:10:00,79.5,75.6,30.01,WNW,300,0.0,1.0,88,0.00,,---,0.00,VWS V14.01,2013-08-14 05:10:00,
2013-08-14 01:15:00,79.3,75.4,30.01,WNW,300,0.0,1.0,88,0.00,,---,0.00,VWS V14.01,2013-08-14 05:15:00,
2013-08-14 01:20:00,79.1,75.2,30.01,WNW,301,0.0,1.0,88,0.00,,---,0.00,VWS V14.01,2013-08-14 05:20:00,
2013-08-14 01:25:00,78.8,75.3,30.00,WNW,301,0.0,1.0,89,0.00,,---,0.00,VWS V14.01,2013-08-14 05:25:00,
2013-08-14 01:31:00,78.6,75.4,30.00,WNW,300,0.0,0.0,90,0.00,,---,0.00,VWS V14.01,2013-08-14 05:31:00,
2013-08-14 01:36:00,78.5,75.3,30.00,South,188,0.0,2.0,90,0.00,,---,0.00,VWS V14.01,2013-08-14 05:36:00,
2013-08-14 01:41:00,78.5,75.3,30.00,SSE,160,0.0,2.0,90,0.00,,---,0.00,VWS V14.01,2013-08-14 05:41:00,
2013-08-14 01:46:00,78.5,75.3,29.99,SSW,205,0.0,2.0,90,0.00,,---,0.00,VWS V14.01,2013-08-14 05:46:00,
2013-08-14 01:51:00,78.5,75.3,29.99,South,170,0.0,2.0,90,0.00,,---,0.00,VWS V14.01,2013-08-14 05:51:00,
2013-08-14 01:56:00,78.4,75.2,29.99,South,172,0.0,2.0,90,0.00,,---,0.00,VWS V14.01,2013-08-14 05:56:00,
2013-08-14 02:01:00,78.4,75.2,29.99,South,173,0.0,0.0,90,0.00,,---,0.00,VWS V14.01,2013-08-14 06:01:00,
2013-08-14 02:06:00,78.4,75.2,29.99,South,190,0.0,1.0,90,0.00,,---,0.00,VWS V14.01,2013-08-14 06:06:00,
2013-08-14 02:11:00,78.3,75.1,29.98,SW,226,0.0,1.0,90,0.00,,---,0.00,VWS V14.01,2013-08-14 06:11:00,
2013-08-14 02:17:00,78.3,75.1,29.98,SSE,149,1.0,3.0,90,0.00,,---,0.00,VWS V14.01,2013-08-14 06:17:00,
2013-08-14 02:22:00,78.3,75.1,29.98,SSE,168,0.0,3.0,90,0.00,,---,0.00,VWS V14.01,2013-08-14 06:22:00,
2013-08-14 02:27:00,78.3,75.1,29.98,South,174,0.0,3.0,90,0.00,,---,0.00,VWS V14.01,2013-08-14 06:27:00,
2013-08-14 02:32:00,78.3,75.1,29.98,SSW,195,0.0,1.0,90,0.00,,---,0.00,VWS V14.01,2013-08-14 06:32:00,
2013-08-14 02:37:00,78.2,75.0,29.98,SE,127,0.0,1.0,90,0.00,,---,0.00,VWS V14.01,2013-08-14 06:37:00,
2013-08-14 02:42:00,78.2,75.0,29.98,SW,233,0.0,2.0,90,0.00,,---,0.00,VWS V14.01,2013-08-14 06:42:00,
2013-08-14 02:47:00,78.1,74.9,29.97,SW,222,0.0,2.0,90,0.00,,---,0.00,VWS V14.01,2013-08-14 06:47:00,
2013-08-14 02:52:00,78.1,74.9,29.97,South,190,0.0,2.0,90,0.00,,---,0.00,VWS V14.01,2013-08-14 06:52:00,
2013-08-14 02:57:00,78.0,74.8,29.97,SSE,162,1.0,4.0,90,0.00,,---,0.00,VWS V14.01,2013-08-14 06:57:00,
2013-08-14 03:03:00,78.0,74.8,29.97,SSE,163,0.0,4.0,90,0.00,,---,0.00,VWS V14.01,2013-08-14 07:03:00,
2013-08-14 03:08:00,78.0,74.8,29.97,SE,142,0.0,4.0,90,0.00,,---,0.00,VWS V14.01,2013-08-14 07:08:00,
2013-08-14 03:13:00,78.0,74.8,29.97,SE,126,0.0,4.0,90,0.00,,---,0.00,VWS V14.01,2013-08-14 07:13:00,
2013-08-14 03:18:00,77.9,74.7,29.97,ESE,120,0.0,4.0,90,0.00,,---,0.00,VWS V14.01,2013-08-14 07:18:00,
2013-08-14 03:23:00,77.9,74.7,29.97,South,191,2.0,4.0,90,0.00,,---,0.00,VWS V14.01,2013-08-14 07:23:00,
2013-08-14 03:28:00,77.9,74.7,29.97,SSE,149,0.0,4.0,90,0.00,,---,0.00,VWS V14.01,2013-08-14 07:28:00,
2013-08-14 03:33:00,77.8,74.6,29.97,SSE,149,1.0,3.0,90,0.00,,---,0.00,VWS V14.01,2013-08-14 07:33:00,
2013-08-14 03:38:00,77.8,74.6,29.97,South,177,0.0,3.0,90,0.00,,---,0.00,VWS V14.01,2013-08-14 07:38:00,
2013-08-14 03:43:00,77.7,74.5,29.96,SSE,153,1.0,3.0,90,0.00,,---,0.00,VWS V14.01,2013-08-14 07:43:00,
2013-08-14 03:49:00,77.7,74.5,29.97,South,172,1.0,3.0,90,0.00,,---,0.00,VWS V14.01,2013-08-14 07:49:00,
2013-08-14 03:54:00,77.7,74.5,29.97,South,172,2.0,3.0,90,0.00,,---,0.00,VWS V14.01,2013-08-14 07:54:00,
2013-08-14 03:59:00,77.7,74.5,29.97,South,179,0.0,3.0,90,0.00,,---,0.00,VWS V14.01,2013-08-14 07:59:00,
2013-08-14 04:04:00,77.7,74.5,29.97,ESE,112,0.0,4.0,90,0.00,,---,0.00,VWS V14.01,2013-08-14 08:04:00,
2013-08-14 04:09:00,77.7,74.5,29.97,SSW,201,2.0,4.0,90,0.00,,---,0.00,VWS V14.01,2013-08-14 08:09:00,
2013-08-14 04:14:00,77.7,74.5,29.96,SSW,201,0.0,4.0,90,0.00,,---,0.00,VWS V14.01,2013-08-14 08:14:00,
2013-08-14 04:19:00,77.6,74.4,29.96,SSW,211,1.0,4.0,90,0.00,,---,0.00,VWS V14.01,2013-08-14 08:19:00,
2013-08-14 04:24:00,77.7,74.5,29.96,West,263,0.0,4.0,90,0.00,,---,0.00,VWS V14.01,2013-08-14 08:24:00,
2013-08-14 04:30:00,77.6,74.4,29.96,SSW,200,1.0,4.0,90,0.00,,---,0.00,VWS V14.01,2013-08-14 08:30:00,
2013-08-14 04:35:00,77.5,74.7,29.96,SW,217,1.0,3.0,91,0.00,,---,0.00,VWS V14.01,2013-08-14 08:35:00,
2013-08-14 04:40:00,77.4,74.6,29.96,SSE,160,0.0,3.0,91,0.00,,---,0.00,VWS V14.01,2013-08-14 08:40:00,
2013-08-14 04:45:00,77.3,74.5,29.96,SW,219,1.0,4.0,91,0.00,,---,0.00,VWS V14.01,2013-08-14 08:45:00,
2013-08-14 04:50:00,77.2,74.4,29.96,South,177,2.0,4.0,91,0.00,,---,0.00,VWS V14.01,2013-08-14 08:50:00,
2013-08-14 04:55:00,77.2,74.7,29.96,SSW,195,0.0,5.0,92,0.00,,---,0.00,VWS V14.01,2013-08-14 08:55:00,
2013-08-14 05:00:00,77.1,74.6,29.95,SSW,192,0.0,1.0,92,0.00,,---,0.00,VWS V14.01,2013-08-14 09:00:00,
2013-08-14 05:05:00,77.0,74.5,29.95,SSW,202,0.0,2.0,92,0.00,,---,0.00,VWS V14.01,2013-08-14 09:05:00,
2013-08-14 05:11:00,76.9,74.4,29.95,SW,224,0.0,2.0,92,0.00,,---,0.00,VWS V14.01,2013-08-14 09:11:00,
2013-08-14 05:16:00,76.8,74.6,29.96,SSW,193,1.0,3.0,93,0.00,,---,0.00,VWS V14.01,2013-08-14 09:16:00,
2013-08-14 05:21:00,76.9,74.7,29.96,SW,222,0.0,3.0,93,0.00,,---,0.00,VWS V14.01,2013-08-14 09:21:00,
2013-08-14 05:26:00,76.8,74.6,29.96,SW,235,0.0,3.0,93,0.00,,---,0.00,VWS V14.01,2013-08-14 09:26:00,
2013-08-14 05:31:00,76.8,74.6,29.96,SSE,153,0.0,1.0,93,0.00,,---,0.00,VWS V14.01,2013-08-14 09:31:00,
2013-08-14 05:36:00,76.7,74.5,29.96,South,176,0.0,1.0,93,0.00,,---,0.00,VWS V14.01,2013-08-14 09:36:00,
2013-08-14 05:41:00,76.7,74.5,29.96,South,170,1.0,1.0,93,0.00,,---,0.00,VWS V14.01,2013-08-14 09:41:00,
2013-08-14 05:46:00,76.6,74.8,29.96,WSW,250,0.0,1.0,94,0.00,,---,0.00,VWS V14.01,2013-08-14 09:46:00,
2013-08-14 05:51:00,76.5,74.3,29.96,SSW,198,0.0,1.0,93,0.00,,---,0.00,VWS V14.01,2013-08-14 09:51:00,
2013-08-14 05:57:00,76.4,74.6,29.96,South,173,0.0,1.0,94,0.00,,---,0.00,VWS V14.01,2013-08-14 09:57:00,
2013-08-14 06:02:00,76.3,74.4,29.96,SSE,155,0.0,0.0,94,0.00,,---,0.00,VWS V14.01,2013-08-14 10:02:00,
2013-08-14 06:07:00,76.3,74.4,29.96,South,169,0.0,2.0,94,0.00,,---,0.00,VWS V14.01,2013-08-14 10:07:00,
2013-08-14 06:12:00,76.2,74.3,29.96,South,185,0.0,2.0,94,0.00,,---,0.00,VWS V14.01,2013-08-14 10:12:00,
2013-08-14 06:17:00,76.1,74.2,29.96,SW,221,0.0,2.0,94,0.00,,---,0.00,VWS V14.01,2013-08-14 10:17:00,
2013-08-14 06:22:00,76.0,74.2,29.96,SSE,167,0.0,2.0,94,0.00,,---,0.00,VWS V14.01,2013-08-14 10:22:00,
2013-08-14 06:27:00,75.9,74.1,29.96,WSW,249,0.0,3.0,94,0.00,,---,0.00,VWS V14.01,2013-08-14 10:27:00,
2013-08-14 06:32:00,75.9,74.1,29.96,South,174,0.0,0.0,94,0.00,,---,0.00,VWS V14.01,2013-08-14 10:32:00,
2013-08-14 06:38:00,75.9,74.4,29.96,SSW,201,0.0,1.0,95,0.00,,---,0.00,VWS V14.01,2013-08-14 10:38:00,
2013-08-14 06:43:00,75.8,73.9,29.97,SSW,200,0.0,1.0,94,0.00,,---,0.00,VWS V14.01,2013-08-14 10:43:00,
2013-08-14 06:48:00,75.8,73.9,29.97,SSW,201,0.0,1.0,94,0.00,,---,0.00,VWS V14.01,2013-08-14 10:48:00,
2013-08-14 06:53:00,75.8,74.3,29.97,ESE,105,0.0,1.0,95,0.00,,---,0.00,VWS V14.01,2013-08-14 10:53:00,
2013-08-14 06:58:00,75.7,74.2,29.97,ESE,104,0.0,1.0,95,0.00,,---,0.00,VWS V14.01,2013-08-14 10:58:00,
2013-08-14 07:03:00,75.7,74.2,29.97,SE,125,0.0,1.0,95,0.00,,---,0.00,VWS V14.01,2013-08-14 11:03:00,
2013-08-14 07:08:00,75.7,74.2,29.97,SE,126,0.0,1.0,95,0.00,,---,0.00,VWS V14.01,2013-08-14 11:08:00,
2013-08-14 07:13:00,75.7,74.2,29.97,SE,126,0.0,1.0,95,0.00,,---,0.00,VWS V14.01,2013-08-14 11:13:00,
2013-08-14 07:18:00,75.8,74.3,29.97,SE,126,0.0,1.0,95,0.00,,---,0.00,VWS V14.01,2013-08-14 11:18:00,
2013-08-14 07:23:00,75.9,74.4,29.97,SE,125,0.0,1.0,95,0.00,,---,0.00,VWS V14.01,2013-08-14 11:23:00,
2013-08-14 07:29:00,76.0,74.5,29.98,WSW,239,0.0,1.0,95,0.00,,---,0.00,VWS V14.01,2013-08-14 11:29:00,
2013-08-14 07:34:00,76.1,74.6,29.98,WSW,245,2.0,3.0,95,0.00,,---,0.00,VWS V14.01,2013-08-14 11:34:00,
2013-08-14 07:39:00,76.2,74.7,29.98,SW,231,0.0,3.0,95,0.00,,---,0.00,VWS V14.01,2013-08-14 11:39:00,
2013-08-14 07:44:00,76.4,74.6,29.98,WNW,288,0.0,3.0,94,0.00,,---,0.00,VWS V14.01,2013-08-14 11:44:00,
2013-08-14 07:49:00,76.9,75.1,29.98,West,279,0.0,3.0,94,0.00,,---,0.00,VWS V14.01,2013-08-14 11:49:00,
2013-08-14 07:54:00,77.5,75.3,29.98,SW,214,0.0,3.0,93,0.00,,---,0.00,VWS V14.01,2013-08-14 11:54:00,
2013-08-14 07:59:00,78.1,75.9,29.98,WSW,242,0.0,3.0,93,0.00,,---,0.00,VWS V14.01,2013-08-14 11:59:00,
2013-08-14 08:04:00,79.1,76.2,29.98,South,174,0.0,1.0,91,0.00,,---,0.00,VWS V14.01,2013-08-14 12:04:00,
2013-08-14 08:09:00,79.6,76.1,29.98,WSW,245,0.0,7.0,89,0.00,,---,0.00,VWS V14.01,2013-08-14 12:09:00,
2013-08-14 08:14:00,80.1,75.9,29.98,South,190,0.0,7.0,87,0.00,,---,0.00,VWS V14.01,2013-08-14 12:14:00,
2013-08-14 08:19:00,80.4,75.8,29.98,South,188,1.0,7.0,86,0.00,,---,0.00,VWS V14.01,2013-08-14 12:19:00,
2013-08-14 08:24:00,80.5,75.9,29.98,South,191,1.0,7.0,86,0.00,,---,0.00,VWS V14.01,2013-08-14 12:24:00,
2013-08-14 08:29:00,80.7,76.1,29.98,SW,235,1.0,7.0,86,0.00,,---,0.00,VWS V14.01,2013-08-14 12:29:00,
2013-08-14 08:34:00,80.8,76.2,29.99,SSE,153,1.0,4.0,86,0.00,,---,0.00,VWS V14.01,2013-08-14 12:34:00,
2013-08-14 08:40:00,81.2,76.3,29.98,West,260,2.0,4.0,85,0.00,,---,0.00,VWS V14.01,2013-08-14 12:40:00,
2013-08-14 08:45:00,81.8,76.5,29.98,West,260,3.0,4.0,84,0.00,,---,0.00,VWS V14.01,2013-08-14 12:45:00,
2013-08-14 08:50:00,82.3,76.6,29.98,South,179,1.0,4.0,83,0.00,,---,0.00,VWS V14.01,2013-08-14 12:50:00,
2013-08-14 08:55:00,82.7,76.7,29.98,West,272,1.0,4.0,82,0.00,,---,0.00,VWS V14.01,2013-08-14 12:55:00,
2013-08-14 09:00:00,83.4,77.0,29.98,WSW,242,3.0,4.0,81,0.00,,---,0.00,VWS V14.01,2013-08-14 13:00:00,
2013-08-14 09:05:00,83.7,76.9,29.98,SSE,152,0.0,5.0,80,0.00,,---,0.00,VWS V14.01,2013-08-14 13:05:00,
2013-08-14 09:10:00,84.1,76.5,29.98,SW,217,4.0,5.0,78,0.00,,---,0.00,VWS V14.01,2013-08-14 13:10:00,
2013-08-14 09:15:00,84.2,76.2,29.99,West,260,4.0,8.0,77,0.00,,---,0.00,VWS V14.01,2013-08-14 13:15:00,
2013-08-14 09:20:00,84.2,76.6,29.98,NW,305,0.0,8.0,78,0.00,,---,0.00,VWS V14.01,2013-08-14 13:20:00,
2013-08-14 09:25:00,84.6,76.6,29.99,SW,218,0.0,8.0,77,0.00,,---,0.00,VWS V14.01,2013-08-14 13:25:00,
2013-08-14 09:30:00,84.7,76.7,29.98,West,269,2.0,2.0,77,0.00,,---,0.00,VWS V14.01,2013-08-14 13:30:00,
2013-08-14 09:35:00,85.0,77.0,29.98,West,267,3.0,3.0,77,0.00,,---,0.00,VWS V14.01,2013-08-14 13:35:00,
2013-08-14 09:40:00,84.7,76.7,29.98,ESE,121,1.0,7.0,77,0.00,,---,0.00,VWS V14.01,2013-08-14 13:40:00,
2013-08-14 09:45:00,85.1,77.5,29.98,SSE,149,0.0,7.0,78,0.00,,---,0.00,VWS V14.01,2013-08-14 13:45:00,
2013-08-14 09:51:00,85.8,77.0,29.98,SE,141,2.0,7.0,75,0.00,,---,0.00,VWS V14.01,2013-08-14 13:51:00,
2013-08-14 09:56:00,86.1,77.2,29.98,SSW,205,3.0,7.0,75,0.00,,---,0.00,VWS V14.01,2013-08-14 13:56:00,
2013-08-14 10:01:00,86.4,77.1,29.98,West,262,3.0,4.0,74,0.00,,---,0.00,VWS V14.01,2013-08-14 14:01:00,
2013-08-14 10:06:00,86.9,77.6,29.98,SW,231,2.0,7.0,74,0.00,,---,0.00,VWS V14.01,2013-08-14 14:06:00,
2013-08-14 10:11:00,87.0,76.9,29.98,NE,53,1.0,7.0,72,0.00,,---,0.00,VWS V14.01,2013-08-14 14:11:00,
2013-08-14 10:16:00,87.4,77.3,29.98,NNW,329,0.0,7.0,72,0.00,,---,0.00,VWS V14.01,2013-08-14 14:16:00,
2013-08-14 10:21:00,87.7,77.6,29.98,West,262,3.0,7.0,72,0.00,,---,0.00,VWS V14.01,2013-08-14 14:21:00,
2013-08-14 10:26:00,87.7,77.1,29.99,SSW,201,1.0,7.0,71,0.00,,---,0.00,VWS V14.01,2013-08-14 14:26:00,
2013-08-14 10:31:00,87.0,76.9,29.99,SSW,201,3.0,4.0,72,0.00,,---,0.00,VWS V14.01,2013-08-14 14:31:00,
2013-08-14 10:37:00,87.4,78.1,29.99,South,184,1.0,5.0,74,0.00,,---,0.00,VWS V14.01,2013-08-14 14:37:00,
2013-08-14 10:42:00,87.5,77.4,29.99,West,263,2.0,5.0,72,0.00,,---,0.00,VWS V14.01,2013-08-14 14:42:00,
2013-08-14 10:47:00,87.6,77.5,29.99,SSE,149,0.0,6.0,72,0.00,,---,0.00,VWS V14.01,2013-08-14 14:47:00,
2013-08-14 10:52:00,88.1,77.5,29.98,WSW,251,1.0,6.0,71,0.00,,---,0.00,VWS V14.01,2013-08-14 14:52:00,
2013-08-14 10:57:00,88.3,77.7,29.98,WSW,254,1.0,6.0,71,0.00,,---,0.00,VWS V14.01,2013-08-14 14:57:00,
2013-08-14 11:02:00,88.1,77.1,29.98,SW,232,1.0,2.0,70,0.00,,---,0.00,VWS V14.01,2013-08-14 15:02:00,
2013-08-14 11:07:00,88.3,77.3,29.98,East,86,0.0,3.0,70,0.00,,---,0.00,VWS V14.01,2013-08-14 15:07:00,
2013-08-14 11:12:00,88.6,77.6,29.98,SW,215,1.0,4.0,70,0.00,,---,0.00,VWS V14.01,2013-08-14 15:12:00,
2013-08-14 11:17:00,89.5,77.6,29.98,SSW,207,1.0,4.0,68,0.00,,---,0.00,VWS V14.01,2013-08-14 15:17:00,
2013-08-14 11:23:00,89.9,78.4,29.98,SE,136,1.0,4.0,69,0.00,,---,0.00,VWS V14.01,2013-08-14 15:23:00,
2013-08-14 11:28:00,90.1,79.4,29.98,NE,54,1.0,4.0,71,0.00,,---,0.00,VWS V14.01,2013-08-14 15:28:00,
2013-08-14 11:33:00,90.6,78.6,29.99,SSW,204,2.0,3.0,68,0.00,,---,0.00,VWS V14.01,2013-08-14 15:33:00,
2013-08-14 11:38:00,90.8,78.8,29.99,SSE,159,0.0,5.0,68,0.00,,---,0.00,VWS V14.01,2013-08-14 15:38:00,
2013-08-14 11:43:00,90.8,77.9,29.99,SE,143,2.0,5.0,66,0.00,,---,0.00,VWS V14.01,2013-08-14 15:43:00,
2013-08-14 11:48:00,90.6,77.7,29.99,WSW,255,2.0,5.0,66,0.00,,---,0.00,VWS V14.01,2013-08-14 15:48:00,
2013-08-14 11:54:00,90.8,77.9,29.99,SW,215,2.0,5.0,66,0.00,,---,0.00,VWS V14.01,2013-08-14 15:54:00,
2013-08-14 11:59:00,90.7,78.2,29.99,SSE,165,1.0,5.0,67,0.00,,---,0.00,VWS V14.01,2013-08-14 15:59:00,
2013-08-14 12:04:00,90.4,77.9,29.98,South,191,1.0,6.0,67,0.00,,---,0.00,VWS V14.01,2013-08-14 16:04:00,
2013-08-14 12:09:00,90.7,78.2,29.98,SW,219,0.0,6.0,67,0.00,,---,0.00,VWS V14.01,2013-08-14 16:09:00,
2013-08-14 12:14:00,91.3,77.9,29.98,SW,235,1.0,6.0,65,0.00,,---,0.00,VWS V14.01,2013-08-14 16:14:00,
2013-08-14 12:19:00,91.8,77.4,29.98,SW,218,1.0,6.0,63,0.00,,---,0.00,VWS V14.01,2013-08-14 16:19:00,
2013-08-14 12:24:00,91.8,78.4,29.98,SSW,203,2.0,6.0,65,0.00,,---,0.00,VWS V14.01,2013-08-14 16:24:00,
2013-08-14 12:29:00,91.6,78.2,29.98,SW,221,2.0,6.0,65,0.00,,---,0.00,VWS V14.01,2013-08-14 16:29:00,
2013-08-14 12:34:00,91.7,78.3,29.98,WNW,300,1.0,4.0,65,0.00,,---,0.00,VWS V14.01,2013-08-14 16:34:00,
2013-08-14 12:39:00,92.3,77.9,29.98,SE,129,0.0,4.0,63,0.00,,---,0.00,VWS V14.01,2013-08-14 16:39:00,
2013-08-14 12:44:00,92.8,78.4,29.97,SSW,192,1.0,4.0,63,0.00,,---,0.00,VWS V14.01,2013-08-14 16:44:00,
2013-08-14 12:49:00,92.6,77.7,29.97,South,169,2.0,6.0,62,0.00,,---,0.00,VWS V14.01,2013-08-14 16:49:00,
2013-08-14 12:55:00,92.5,77.6,29.97,WNW,301,1.0,6.0,62,0.00,,---,0.00,VWS V14.01,2013-08-14 16:55:00,
2013-08-14 13:00:00,92.1,77.7,29.97,SW,231,2.0,5.0,63,0.00,,---,0.00,VWS V14.01,2013-08-14 17:00:00,
2013-08-14 13:05:00,91.9,77.0,29.97,WSW,241,1.0,4.0,62,0.00,,---,0.00,VWS V14.01,2013-08-14 17:05:00,
2013-08-14 13:10:00,92.5,77.6,29.97,East,86,1.0,1.0,62,0.00,,---,0.00,VWS V14.01,2013-08-14 17:10:00,
2013-08-14 13:15:00,93.4,77.4,29.97,WSW,242,1.0,3.0,60,0.00,,---,0.00,VWS V14.01,2013-08-14 17:15:00,
2013-08-14 13:20:00,94.4,78.4,29.97,ESE,118,1.0,4.0,60,0.00,,---,0.00,VWS V14.01,2013-08-14 17:20:00,
2013-08-14 13:25:00,94.8,77.2,29.97,SSE,162,0.0,4.0,57,0.00,,---,0.00,VWS V14.01,2013-08-14 17:25:00,
2013-08-14 13:31:00,95.0,77.4,29.97,SE,129,0.0,2.0,57,0.00,,---,0.00,VWS V14.01,2013-08-14 17:31:00,
2013-08-14 13:36:00,95.2,76.5,29.97,SSE,151,1.0,1.0,55,0.00,,---,0.00,VWS V14.01,2013-08-14 17:36:00,
2013-08-14 13:41:00,95.0,77.4,29.96,WSW,245,3.0,3.0,57,0.00,,---,0.00,VWS V14.01,2013-08-14 17:41:00,
2013-08-14 13:46:00,95.2,77.0,29.96,East,83,0.0,4.0,56,0.00,,---,0.00,VWS V14.01,2013-08-14 17:46:00,
2013-08-14 13:51:00,95.5,75.7,29.96,ESE,123,2.0,3.0,53,0.00,,---,0.00,VWS V14.01,2013-08-14 17:51:00,
2013-08-14 13:57:00,95.2,75.4,29.96,South,173,2.0,2.0,53,0.00,,---,0.00,VWS V14.01,2013-08-14 17:57:00,
2013-08-14 14:02:00,94.8,74.4,29.96,SE,135,0.0,3.0,52,0.00,,---,0.00,VWS V14.01,2013-08-14 18:02:00,
2013-08-14 14:07:00,95.2,74.2,29.96,WSW,248,0.0,2.0,51,0.00,,---,0.00,VWS V14.01,2013-08-14 18:07:00,
2013-08-14 14:12:00,95.1,74.1,29.95,South,177,3.0,6.0,51,0.00,,---,0.00,VWS V14.01,2013-08-14 18:12:00,
2013-08-14 14:18:00,94.7,73.2,29.95,East,79,1.0,6.0,50,0.00,,---,0.00,VWS V14.01,2013-08-14 18:18:00,
2013-08-14 14:23:00,94.6,74.3,29.95,WSW,257,3.0,3.0,52,0.00,,---,0.00,VWS V14.01,2013-08-14 18:23:00,
2013-08-14 14:28:00,94.7,77.6,29.95,SSE,153,0.0,4.0,58,0.00,,---,0.00,VWS V14.01,2013-08-14 18:28:00,
2013-08-14 14:34:00,95.1,76.4,29.95,NNE,20,3.0,4.0,55,0.00,,---,0.00,VWS V14.01,2013-08-14 18:34:00,
2013-08-14 14:39:00,93.8,76.8,29.95,SE,131,2.0,6.0,58,0.00,,---,0.00,VWS V14.01,2013-08-14 18:39:00,
2013-08-14 14:44:00,93.2,77.8,29.94,SE,125,2.0,9.0,61,0.00,,---,0.00,VWS V14.01,2013-08-14 18:44:00,
2013-08-14 14:49:00,92.3,77.4,29.94,ENE,76,1.0,3.0,62,0.00,,---,0.00,VWS V14.01,2013-08-14 18:49:00,
2013-08-14 14:54:00,92.1,78.2,29.94,SE,135,2.0,4.0,64,0.00,,---,0.00,VWS V14.01,2013-08-14 18:54:00,
2013-08-14 14:59:00,91.5,77.6,29.94,SE,140,0.0,5.0,64,0.00,,---,0.00,VWS V14.01,2013-08-14 18:59:00,
2013-08-14 15:04:00,90.9,77.5,29.94,East,81,1.0,5.0,65,0.00,,---,0.00,VWS V14.01,2013-08-14 19:04:00,
2013-08-14 15:12:00,90.6,77.2,29.94,NNE,19,4.0,4.0,65,0.00,,---,0.00,VWS V14.01,2013-08-14 19:12:00,
2013-08-14 15:17:00,91.6,77.7,29.93,SSE,155,0.0,5.0,64,0.00,,---,0.00,VWS V14.01,2013-08-14 19:17:00,
2013-08-14 15:22:00,92.8,78.4,29.93,East,101,2.0,3.0,63,0.00,,---,0.00,VWS V14.01,2013-08-14 19:22:00,
2013-08-14 15:28:00,92.9,78.0,29.93,East,89,1.0,5.0,62,0.00,,---,0.00,VWS V14.01,2013-08-14 19:28:00,
2013-08-14 15:33:00,92.1,77.2,29.93,East,92,4.0,8.0,62,0.00,,---,0.00,VWS V14.01,2013-08-14 19:33:00,
2013-08-14 15:38:00,91.9,77.5,29.92,SE,131,1.0,8.0,63,0.00,,---,0.00,VWS V14.01,2013-08-14 19:38:00,
2013-08-14 15:44:00,92.2,77.3,29.92,ESE,103,2.0,8.0,62,0.00,,---,0.00,VWS V14.01,2013-08-14 19:44:00,
2013-08-14 15:49:00,92.0,77.1,29.92,ESE,103,1.0,8.0,62,0.00,,---,0.00,VWS V14.01,2013-08-14 19:49:00,
2013-08-14 15:54:00,92.6,77.2,29.92,ESE,117,3.0,8.0,61,0.00,,---,0.00,VWS V14.01,2013-08-14 19:54:00,
2013-08-14 16:00:00,92.5,77.1,29.92,SW,226,2.0,8.0,61,0.00,,---,0.00,VWS V14.01,2013-08-14 20:00:00,
2013-08-14 16:05:00,92.5,77.1,29.92,SSE,156,2.0,7.0,61,0.00,,---,0.00,VWS V14.01,2013-08-14 20:05:00,
2013-08-14 16:10:00,92.7,77.3,29.92,East,86,3.0,7.0,61,0.00,,---,0.00,VWS V14.01,2013-08-14 20:10:00,
2013-08-14 16:15:00,92.5,77.1,29.92,SE,124,2.0,8.0,61,0.00,,---,0.00,VWS V14.01,2013-08-14 20:15:00,
2013-08-14 16:21:00,92.2,76.8,29.92,ESE,120,3.0,8.0,61,0.00,,---,0.00,VWS V14.01,2013-08-14 20:21:00,
2013-08-14 16:27:00,92.0,76.1,29.91,ESE,108,1.0,8.0,60,0.00,,---,0.00,VWS V14.01,2013-08-14 20:27:00,
2013-08-14 16:32:00,91.8,75.4,29.92,SE,124,1.0,4.0,59,0.00,,---,0.00,VWS V14.01,2013-08-14 20:32:00,
2013-08-14 16:37:00,91.6,75.8,29.91,SE,143,2.0,6.0,60,0.00,,---,0.00,VWS V14.01,2013-08-14 20:37:00,
2013-08-14 16:43:00,91.6,75.8,29.91,ENE,71,3.0,9.0,60,0.00,,---,0.00,VWS V14.01,2013-08-14 20:43:00,
2013-08-14 16:48:00,91.8,75.9,29.91,NE,47,1.0,9.0,60,0.00,,---,0.00,VWS V14.01,2013-08-14 20:48:00,
2013-08-14 16:53:00,91.3,76.0,29.91,NE,46,5.0,9.0,61,0.00,,---,0.00,VWS V14.01,2013-08-14 20:53:00,
2013-08-14 16:58:00,91.0,76.2,29.92,ENE,58,2.0,9.0,62,0.00,,---,0.00,VWS V14.01,2013-08-14 20:58:00,
2013-08-14 17:03:00,90.7,75.4,29.92,NE,39,4.0,9.0,61,0.00,,---,0.00,VWS V14.01,2013-08-14 21:03:00,
2013-08-14 17:08:00,90.4,76.1,29.92,ESE,110,1.0,9.0,63,0.00,,---,0.00,VWS V14.01,2013-08-14 21:08:00,
2013-08-14 17:13:00,90.3,76.0,29.92,ESE,113,4.0,9.0,63,0.00,,---,0.00,VWS V14.01,2013-08-14 21:13:00,
2013-08-14 17:18:00,89.9,76.1,29.92,SE,143,2.0,9.0,64,0.00,,---,0.00,VWS V14.01,2013-08-14 21:18:00,
2013-08-14 17:23:00,89.8,76.5,29.92,ESE,113,2.0,9.0,65,0.00,,---,0.00,VWS V14.01,2013-08-14 21:23:00,
2013-08-14 17:28:00,89.3,76.5,29.92,ESE,107,1.0,9.0,66,0.00,,---,0.00,VWS V14.01,2013-08-14 21:28:00,
2013-08-14 17:34:00,89.0,74.3,29.92,SE,131,1.0,3.0,62,0.00,,---,0.00,VWS V14.01,2013-08-14 21:34:00,
2013-08-14 17:39:00,88.6,74.4,29.92,SSE,158,1.0,4.0,63,0.00,,---,0.00,VWS V14.01,2013-08-14 21:39:00,
2013-08-14 17:44:00,88.3,74.1,29.92,ENE,65,3.0,4.0,63,0.00,,---,0.00,VWS V14.01,2013-08-14 21:44:00,
2013-08-14 17:49:00,87.9,74.2,29.92,NE,34,4.0,6.0,64,0.00,,---,0.00,VWS V14.01,2013-08-14 21:49:00,
2013-08-14 17:54:00,87.5,74.3,29.92,East,79,1.0,6.0,65,0.00,,---,0.00,VWS V14.01,2013-08-14 21:54:00,
2013-08-14 17:59:00,87.4,74.2,29.92,ENE,74,2.0,6.0,65,0.00,,---,0.00,VWS V14.01,2013-08-14 21:59:00,
2013-08-14 18:04:00,87.3,74.6,29.92,ESE,113,0.0,2.0,66,0.00,,---,0.00,VWS V14.01,2013-08-14 22:04:00,
2013-08-14 18:09:00,87.0,74.3,29.92,ENE,62,2.0,3.0,66,0.00,,---,0.00,VWS V14.01,2013-08-14 22:09:00,
2013-08-14 18:14:00,86.7,74.4,29.92,SE,127,1.0,5.0,67,0.00,,---,0.00,VWS V14.01,2013-08-14 22:14:00,
2013-08-14 18:20:00,86.5,74.7,29.92,SE,141,1.0,5.0,68,0.00,,---,0.00,VWS V14.01,2013-08-14 22:20:00,
2013-08-14 18:25:00,86.3,74.9,29.93,ESE,113,0.0,5.0,69,0.00,,---,0.00,VWS V14.01,2013-08-14 22:25:00,
2013-08-14 18:31:00,86.2,75.3,29.93,SE,143,2.0,3.0,70,0.00,,---,0.00,VWS V14.01,2013-08-14 22:31:00,
2013-08-14 18:36:00,86.0,75.1,29.93,ESE,103,3.0,3.0,70,0.00,,---,0.00,VWS V14.01,2013-08-14 22:36:00,
2013-08-14 18:41:00,86.0,75.1,29.94,East,101,0.0,3.0,70,0.00,,---,0.00,VWS V14.01,2013-08-14 22:41:00,
2013-08-14 18:46:00,86.0,75.1,29.94,ESE,119,0.0,3.0,70,0.00,,---,0.00,VWS V14.01,2013-08-14 22:46:00,
2013-08-14 18:51:00,85.9,75.0,29.94,WSW,257,1.0,3.0,70,0.00,,---,0.00,VWS V14.01,2013-08-14 22:51:00,
2013-08-14 18:56:00,85.9,75.0,29.94,SSE,158,0.0,3.0,70,0.00,,---,0.00,VWS V14.01,2013-08-14 22:56:00,
2013-08-14 19:01:00,85.8,74.5,29.94,ESE,115,0.0,1.0,69,0.00,,---,0.00,VWS V14.01,2013-08-14 23:01:00,
2013-08-14 19:06:00,85.7,74.8,29.94,SW,229,0.0,1.0,70,0.00,,---,0.00,VWS V14.01,2013-08-14 23:06:00,
2013-08-14 19:11:00,85.6,74.7,29.93,East,81,1.0,2.0,70,0.00,,---,0.00,VWS V14.01,2013-08-14 23:11:00,
2013-08-14 19:16:00,85.4,74.5,29.94,NE,54,0.0,2.0,70,0.00,,---,0.00,VWS V14.01,2013-08-14 23:16:00,
2013-08-14 19:21:00,85.2,74.3,29.94,ESE,105,1.0,4.0,70,0.00,,---,0.00,VWS V14.01,2013-08-14 23:21:00,
2013-08-14 19:26:00,85.2,74.3,29.94,ESE,109,0.0,4.0,70,0.00,,---,0.00,VWS V14.01,2013-08-14 23:26:00,
2013-08-14 19:32:00,85.0,74.1,29.94,South,183,0.0,2.0,70,0.00,,---,0.00,VWS V14.01,2013-08-14 23:32:00,
2013-08-14 19:37:00,84.9,74.0,29.94,SSW,208,0.0,2.0,70,0.00,,---,0.00,VWS V14.01,2013-08-14 23:37:00,
2013-08-14 19:42:00,84.8,73.5,29.94,SE,132,1.0,3.0,69,0.00,,---,0.00,VWS V14.01,2013-08-14 23:42:00,
2013-08-14 19:47:00,84.7,73.4,29.94,SSE,153,0.0,3.0,69,0.00,,---,0.00,VWS V14.01,2013-08-14 23:47:00,
2013-08-14 19:52:00,84.6,73.3,29.93,SE,128,1.0,5.0,69,0.00,,---,0.00,VWS V14.01,2013-08-14 23:52:00,
2013-08-14 19:57:00,84.4,72.7,29.94,SE,126,0.0,5.0,68,0.00,,---,0.00,VWS V14.01,2013-08-14 23:57:00,
2013-08-14 20:02:00,84.3,72.6,29.94,South,190,2.0,2.0,68,0.00,,---,0.00,VWS V14.01,2013-08-15 00:02:00,
2013-08-14 20:07:00,84.2,72.5,29.94,SW,224,2.0,2.0,68,0.00,,---,0.00,VWS V14.01,2013-08-15 00:07:00,
2013-08-14 20:12:00,84.1,72.0,29.95,SSW,212,0.0,2.0,67,0.00,,---,0.00,VWS V14.01,2013-08-15 00:12:00,
2013-08-14 20:17:00,83.9,72.2,29.95,SSW,195,0.0,2.0,68,0.00,,---,0.00,VWS V14.01,2013-08-15 00:17:00,
2013-08-14 20:22:00,83.8,72.1,29.95,SW,231,0.0,2.0,68,0.00,,---,0.00,VWS V14.01,2013-08-15 00:22:00,
2013-08-14 20:27:00,83.9,72.2,29.95,NW,304,0.0,2.0,68,0.00,,---,0.00,VWS V14.01,2013-08-15 00:27:00,
2013-08-14 20:32:00,83.9,72.2,29.96,NW,307,0.0,1.0,68,0.00,,---,0.00,VWS V14.01,2013-08-15 00:32:00,
2013-08-14 20:37:00,83.8,72.6,29.96,NW,307,0.0,1.0,69,0.00,,---,0.00,VWS V14.01,2013-08-15 00:37:00,
2013-08-14 20:43:00,83.6,72.4,29.96,NW,304,0.0,1.0,69,0.00,,---,0.00,VWS V14.01,2013-08-15 00:43:00,
2013-08-14 20:48:00,83.4,72.6,29.97,NW,304,0.0,1.0,70,0.00,,---,0.00,VWS V14.01,2013-08-15 00:48:00,
2013-08-14 20:53:00,83.0,72.6,29.97,WNW,302,0.0,1.0,71,0.00,,---,0.00,VWS V14.01,2013-08-15 00:53:00,
2013-08-14 20:58:00,82.6,73.1,29.98,NW,311,0.0,3.0,73,0.00,,---,0.00,VWS V14.01,2013-08-15 00:58:00,
2013-08-14 21:03:00,82.5,73.8,29.97,SW,232,0.0,1.0,75,0.00,,---,0.00,VWS V14.01,2013-08-15 01:03:00,
2013-08-14 21:08:00,82.3,73.6,29.98,West,264,1.0,1.0,75,0.00,,---,0.00,VWS V14.01,2013-08-15 01:08:00,
2013-08-14 21:13:00,82.0,73.7,29.98,SW,222,0.0,1.0,76,0.00,,---,0.00,VWS V14.01,2013-08-15 01:13:00,
2013-08-14 21:18:00,81.9,74.4,29.98,West,264,0.0,1.0,78,0.00,,---,0.00,VWS V14.01,2013-08-15 01:18:00,
2013-08-14 21:24:00,81.8,74.3,29.99,WSW,249,0.0,2.0,78,0.00,,---,0.00,VWS V14.01,2013-08-15 01:24:00,
2013-08-14 21:29:00,81.7,74.6,29.99,West,270,0.0,2.0,79,0.00,,---,0.00,VWS V14.01,2013-08-15 01:29:00,
2013-08-14 21:34:00,81.5,74.7,29.99,WSW,255,0.0,1.0,80,0.00,,---,0.00,VWS V14.01,2013-08-15 01:34:00,
2013-08-14 21:39:00,81.3,74.5,30.00,West,273,0.0,1.0,80,0.00,,---,0.00,VWS V14.01,2013-08-15 01:39:00,
2013-08-14 21:44:00,81.2,74.4,30.00,West,269,0.0,1.0,80,0.00,,---,0.00,VWS V14.01,2013-08-15 01:44:00,
2013-08-14 21:49:00,80.9,74.5,29.99,West,271,0.0,1.0,81,0.00,,---,0.00,VWS V14.01,2013-08-15 01:49:00,
2013-08-14 21:54:00,80.7,74.0,30.00,West,263,0.0,1.0,80,0.00,,---,0.00,VWS V14.01,2013-08-15 01:54:00,
2013-08-14 21:59:00,80.7,74.0,30.00,West,267,0.0,1.0,80,0.00,,---,0.00,VWS V14.01,2013-08-15 01:59:00,
2013-08-14 22:04:00,80.6,73.9,30.00,West,267,0.0,0.0,80,0.00,,---,0.00,VWS V14.01,2013-08-15 02:04:00,
2013-08-14 22:09:00,80.4,73.7,30.00,West,267,0.0,0.0,80,0.00,,---,0.00,VWS V14.01,2013-08-15 02:09:00,
2013-08-14 22:15:00,80.3,73.6,30.00,West,265,0.0,1.0,80,0.00,,---,0.00,VWS V14.01,2013-08-15 02:15:00,
2013-08-14 22:20:00,80.1,73.8,30.00,West,267,0.0,1.0,81,0.00,,---,0.00,VWS V14.01,2013-08-15 02:20:00,
2013-08-14 22:25:00,79.9,73.6,30.00,West,267,0.0,1.0,81,0.00,,---,0.00,VWS V14.01,2013-08-15 02:25:00,
2013-08-14 22:30:00,79.7,73.4,30.01,West,267,0.0,1.0,81,0.00,,---,0.00,VWS V14.01,2013-08-15 02:30:00,
2013-08-14 22:35:00,79.6,73.6,30.01,West,267,0.0,0.0,82,0.00,,---,0.00,VWS V14.01,2013-08-15 02:35:00,
2013-08-14 22:40:00,79.4,73.4,30.01,West,269,0.0,0.0,82,0.00,,---,0.00,VWS V14.01,2013-08-15 02:40:00,
2013-08-14 22:45:00,79.7,73.7,30.01,WNW,287,0.0,1.0,82,0.00,,---,0.00,VWS V14.01,2013-08-15 02:45:00,
2013-08-14 22:50:00,79.7,73.7,30.01,WNW,287,0.0,1.0,82,0.00,,---,0.00,VWS V14.01,2013-08-15 02:50:00,
2013-08-14 22:55:00,79.5,73.5,30.02,WNW,286,0.0,1.0,82,0.00,,---,0.00,VWS V14.01,2013-08-15 02:55:00,
2013-08-14 23:00:00,79.3,73.7,30.02,WNW,285,0.0,0.0,83,0.00,,---,0.00,VWS V14.01,2013-08-15 03:00:00,
2013-08-14 23:05:00,79.2,73.6,30.02,West,278,0.0,1.0,83,0.00,,---,0.00,VWS V14.01,2013-08-15 03:05:00,
2013-08-14 23:10:00,79.2,73.6,30.02,WNW,288,0.0,1.0,83,0.00,,---,0.00,VWS V14.01,2013-08-15 03:10:00,
2013-08-14 23:15:00,79.2,73.6,30.02,WNW,285,0.0,1.0,83,0.00,,---,0.00,VWS V14.01,2013-08-15 03:15:00,
2013-08-14 23:20:00,79.1,73.8,30.03,WNW,284,0.0,1.0,84,0.00,,---,0.00,VWS V14.01,2013-08-15 03:20:00,
2013-08-14 23:25:00,79.0,73.8,30.03,WNW,283,0.0,1.0,84,0.00,,---,0.00,VWS V14.01,2013-08-15 03:25:00,
2013-08-14 23:30:00,78.8,73.6,30.03,WNW,284,0.0,0.0,84,0.00,,---,0.00,VWS V14.01,2013-08-15 03:30:00,
2013-08-14 23:35:00,78.7,73.8,30.03,West,271,1.0,1.0,85,0.00,,---,0.00,VWS V14.01,2013-08-15 03:35:00,
2013-08-14 23:40:00,78.8,73.6,30.03,West,277,0.0,1.0,84,0.00,,---,0.00,VWS V14.01,2013-08-15 03:40:00,
2013-08-14 23:45:00,78.6,73.4,30.03,West,277,0.0,1.0,84,0.00,,---,0.00,VWS V14.01,2013-08-15 03:45:00,
2013-08-14 23:51:00,78.4,73.5,30.03,West,277,0.0,1.0,85,0.00,,---,0.00,VWS V14.01,2013-08-15 03:51:00,
2013-08-14 23:56:00,78.3,73.8,30.03,West,276,0.0,1.0,86,0.00,,---,0.00,VWS V14.01,2013-08-15 03:56:00,